Location: Cheyres
(46.8153°N, 6.7877°E)
Time: 14:05:40
(UTC+00:00)

SL-08 R/B - Pass Details

Date: 11 May 2021
Orbit: 951 x 1017 km, 82.9° (Epoch: 19 June)

Event Time Altitude Azimuth Distance (km) Brightness Sun altitude
Rises 22:48:14 0° 352° (N) 3,660 8.9 -24.4°
Reaches altitude 10° 22:50:44 10° 354° (N) 2,717 7.9 -24.5°
Maximum altitude 22:56:58 76° 80° (E) 1,013 4.5 -24.6°
Enters shadow 22:58:27 54° 150° (SSE) 1,182 4.5 -24.7°
